Havre, MT

12:29 AM MST on February 06, 2016 (GMT -0700)
Havre City-County

Weather History for KHVR - October, 2011

Change the Weather History Date:

Saturday, October 29, 2011

  Actual Average Record
Temperature  
Mean Temperature 41 °F 39 °F  
Max Temperature 53 °F 52 °F 77 °F (1968)
Min Temperature 29 °F 26 °F -21 °F (1991)
Degree Days  
Heating Degree Days 24 26  
Month to date heating degree days 497 588  
Since 1 July heating degree days 682 945  
Cooling Degree Days 0 0  
Month to date cooling degree days 2 0  
Year to date cooling degree days 370 386  
Moisture  
Dew Point 23 °F    
Average Humidity 45    
Maximum Humidity 65    
Minimum Humidity 24    
Precipitation  
Precipitation T in 0.01 in 0.53 in (1951)
Month to date precipitation 0.08 0.55  
Year to date precipitation 11.32 10.34  
Snow  
Snow 0.00 in 0.10 in 4.50 in (1951)
Month to date snowfall 0.0 1.8  
Since 1 July snowfall 0.0 2.1  
Since 1 September snowfall 0.0 2.1  
Snow Depth 0.00 in    
Sea Level Pressure  
Sea Level Pressure 29.90 in    
Wind  
Wind Speed 14 mph (West)    
Max Wind Speed 32 mph    
Max Gust Speed 40 mph    
Visibility 10 miles    
Events Rain    
T = Trace of Precipitation, MM = Missing Value Source: NWS Daily Summary

Daily Weather History Graph

Daily Weather History Graph

Search for Another Location

Airport or City:

Trip Planner

Search our weather history database for the weather conditions in past years. The results will help you decide how hot, cold, wet, or windy it might be!

Date:

Astronomy

Oct. 29, 2011 Rise Set
Actual Time 8:00 AM MDT 6:04 PM MDT
Civil Twilight 7:27 AM MDT 6:37 PM MDT
Nautical Twilight 6:50 AM MDT 7:13 PM MDT
Astronomical Twilight 6:14 AM MDT 7:50 PM MDT
Moon 11:42 AM MDT (10/29) 8:15 PM MDT (10/29)
Length of Visible Light 11h 09m
Length of Day
10h 04m
Waxing Crescent, 12% of the Moon is Illuminated
Oct 29
Waxing Crescent
Nov 2
First Quarter
Nov 10
Full
Nov 18
Last Quarter
Nov 24
New

Hourly Weather History & Observations

Time (MDT) Temp. Windchill Dew Point Humidity Pressure Visibility Wind Dir Wind Speed Gust Speed Precip Events Conditions
12:53 AM 52.0 °F - 15.1 °F 23% 29.65 in 10.0 mi WSW 19.6 mph - N/A   Scattered Clouds
1:53 AM 46.9 °F - 17.1 °F 30% 29.67 in 10.0 mi SW 10.4 mph - N/A   Partly Cloudy
2:53 AM 48.9 °F - 15.1 °F 26% 29.68 in 10.0 mi West 11.5 mph - N/A   Overcast
3:53 AM 48.2 °F - 19.4 °F 32% 29.66 in 10.0 mi WSW 13.8 mph - N/A   Mostly Cloudy
4:53 AM 48.0 °F - 19.9 °F 33% 29.68 in 10.0 mi SW 19.6 mph - N/A   Scattered Clouds
5:53 AM 46.0 °F 39.6 °F 24.1 °F 42% 29.70 in 10.0 mi SW 15.0 mph - N/A   Clear
6:53 AM 44.1 °F 37.4 °F 27.0 °F 51% 29.73 in 10.0 mi SW 13.8 mph 24.2 mph N/A   Scattered Clouds
7:53 AM 44.1 °F 37.4 °F 27.0 °F 51% 29.77 in 10.0 mi WSW 13.8 mph - N/A   Overcast
8:53 AM 44.1 °F 35.2 °F 34.0 °F 68% 29.83 in 10.0 mi WNW 23.0 mph 39.1 mph 0.00 in Rain Light Rain
9:53 AM 46.0 °F 38.3 °F 30.9 °F 56% 29.86 in 10.0 mi WNW 20.7 mph 27.6 mph 0.00 in   Overcast
10:53 AM 44.1 °F 36.2 °F 34.0 °F 68% 29.92 in 10.0 mi NW 18.4 mph 32.2 mph 0.00 in   Overcast
11:53 AM 46.9 °F - 30.9 °F 54% 29.94 in 10.0 mi WNW 24.2 mph 32.2 mph N/A   Mostly Cloudy
12:53 PM 48.0 °F - 30.9 °F 52% 29.97 in 10.0 mi WNW 21.9 mph 28.8 mph N/A   Overcast
1:53 PM 52.0 °F - 27.0 °F 38% 29.98 in 10.0 mi NW 20.7 mph - N/A   Partly Cloudy
2:53 PM 52.0 °F - 26.1 °F 37% 29.99 in 10.0 mi NW 17.3 mph 25.3 mph N/A   Partly Cloudy
3:53 PM 52.0 °F - 23.0 °F 32% 30.00 in 10.0 mi WNW 13.8 mph 23.0 mph N/A   Clear
4:53 PM 51.8 °F - 21.2 °F 30% 29.98 in 10.0 mi West 16.1 mph 24.2 mph N/A   Clear
5:53 PM 46.4 °F 41.9 °F 21.2 °F 37% 29.99 in 10.0 mi West 9.2 mph - N/A   Clear
6:53 PM 37.9 °F 32.1 °F 19.0 °F 47% 30.05 in 10.0 mi SW 8.1 mph - N/A   Clear
7:53 PM 36.0 °F 29.6 °F 17.1 °F 46% 30.08 in 10.0 mi WSW 8.1 mph - N/A   Clear
8:53 PM 34.0 °F 27.2 °F 18.0 °F 52% 30.08 in 10.0 mi West 8.1 mph - N/A   Clear
9:53 PM 34.0 °F 26.6 °F 18.0 °F 52% 30.09 in 10.0 mi SW 9.2 mph - N/A   Clear
10:53 PM 30.0 °F 25.2 °F 18.0 °F 61% 30.11 in 10.0 mi WSW 4.6 mph - N/A   Clear
11:53 PM 32.0 °F 24.2 °F 19.0 °F 59% 30.11 in 10.0 mi West 9.2 mph - N/A   Clear